Time,TemperatureF,DewpointF,PressureIn,WindDirection,WindDirectionDegrees,WindSpeedMPH,WindSpeedGustMPH,Humidity,HourlyPrecipIn,Conditions,Clouds,dailyrainin,SoftwareType,DateUTC
2013-02-06 00:00:00,32.9,28.9,29.26,South,180,0.9,0.9,85,0.00,,,0.00,WUHU216HW,2013-02-06 05:00:00,
2013-02-06 00:05:00,32.9,28.9,29.26,South,180,0.9,0.9,85,0.00,,,0.00,WUHU216HW,2013-02-06 05:05:00,
2013-02-06 00:30:00,32.8,28.7,29.26,South,180,1.3,1.3,85,0.00,,,0.00,WUHU216HW,2013-02-06 05:30:00,
2013-02-06 00:35:00,32.8,28.7,29.26,South,180,1.3,1.3,85,0.00,,,0.00,WUHU216HW,2013-02-06 05:35:00,
2013-02-06 01:00:00,32.8,28.7,29.25,South,180,0.0,0.0,85,0.00,,,0.00,WUHU216HW,2013-02-06 06:00:00,
2013-02-06 01:05:00,32.8,28.7,29.25,South,180,0.0,0.0,85,0.00,,,0.00,WUHU216HW,2013-02-06 06:05:00,
2013-02-06 01:30:00,32.8,28.7,29.25,NNW,338,0.0,0.0,85,0.00,,,0.00,WUHU216HW,2013-02-06 06:30:00,
2013-02-06 01:35:00,32.8,28.7,29.25,NNW,338,0.0,0.0,85,0.00,,,0.00,WUHU216HW,2013-02-06 06:35:00,
2013-02-06 02:00:00,32.8,29.0,29.25,NE,45,0.9,0.9,86,0.00,,,0.00,WUHU216HW,2013-02-06 07:00:00,
2013-02-06 02:05:00,32.8,29.0,29.25,NE,45,0.9,0.9,86,0.00,,,0.00,WUHU216HW,2013-02-06 07:05:00,
2013-02-06 02:30:00,32.9,29.2,29.26,North,0,0.4,0.4,86,0.00,,,0.00,WUHU216HW,2013-02-06 07:30:00,
2013-02-06 02:35:00,32.9,29.2,29.26,North,0,0.4,0.4,86,0.00,,,0.00,WUHU216HW,2013-02-06 07:35:00,
2013-02-06 03:00:00,33.5,29.7,29.26,North,0,0.2,0.2,86,0.00,,,0.00,WUHU216HW,2013-02-06 08:00:00,
2013-02-06 03:05:00,33.5,29.7,29.26,North,0,0.2,0.2,86,0.00,,,0.00,WUHU216HW,2013-02-06 08:05:00,
2013-02-06 03:30:00,33.5,29.7,29.28,NNE,23,1.1,1.1,86,0.00,,,0.00,WUHU216HW,2013-02-06 08:30:00,
2013-02-06 03:35:00,33.5,29.7,29.28,NNE,23,1.1,1.1,86,0.00,,,0.00,WUHU216HW,2013-02-06 08:35:00,
2013-02-06 04:00:00,33.5,29.7,29.29,SW,225,1.6,1.6,86,0.00,,,0.00,WUHU216HW,2013-02-06 09:00:00,
2013-02-06 04:05:00,33.5,29.7,29.29,SW,225,1.6,1.6,86,0.00,,,0.00,WUHU216HW,2013-02-06 09:05:00,
2013-02-06 04:30:00,33.5,29.7,29.31,West,270,0.9,0.9,86,0.00,,,0.00,WUHU216HW,2013-02-06 09:30:00,
2013-02-06 04:35:00,33.5,29.7,29.31,West,270,0.9,0.9,86,0.00,,,0.00,WUHU216HW,2013-02-06 09:35:00,
2013-02-06 05:00:00,33.7,29.8,29.33,NNW,338,0.4,0.4,86,0.00,,,0.00,WUHU216HW,2013-02-06 10:00:00,
2013-02-06 05:05:00,33.7,29.8,29.33,NNW,338,0.4,0.4,86,0.00,,,0.00,WUHU216HW,2013-02-06 10:05:00,
2013-02-06 05:30:00,36.4,32.0,29.35,NW,315,5.4,5.4,84,0.00,,,0.00,WUHU216HW,2013-02-06 10:30:00,
2013-02-06 05:35:00,36.4,32.0,29.35,NW,315,5.4,5.4,84,0.00,,,0.00,WUHU216HW,2013-02-06 10:35:00,
2013-02-06 06:00:00,37.8,31.9,29.36,West,270,2.9,2.9,79,0.00,,,0.00,WUHU216HW,2013-02-06 11:00:00,
2013-02-06 06:05:00,37.8,31.9,29.36,West,270,2.9,2.9,79,0.00,,,0.00,WUHU216HW,2013-02-06 11:05:00,
2013-02-06 06:30:00,38.5,31.0,29.37,NNW,338,7.6,7.6,74,0.00,,,0.00,WUHU216HW,2013-02-06 11:30:00,
2013-02-06 06:35:00,38.5,31.0,29.37,NNW,338,7.6,7.6,74,0.00,,,0.00,WUHU216HW,2013-02-06 11:35:00,
2013-02-06 07:00:00,38.2,29.6,29.40,NNW,338,13.2,13.2,71,0.00,,,0.00,WUHU216HW,2013-02-06 12:00:00,
2013-02-06 07:05:00,38.2,29.6,29.40,NNW,338,13.2,13.2,71,0.00,,,0.00,WUHU216HW,2013-02-06 12:05:00,
2013-02-06 07:30:00,37.8,28.5,29.42,West,270,9.8,9.8,69,0.00,,,0.00,WUHU216HW,2013-02-06 12:30:00,
2013-02-06 07:35:00,37.8,28.5,29.42,West,270,9.8,9.8,69,0.00,,,0.00,WUHU216HW,2013-02-06 12:35:00,
2013-02-06 08:00:00,37.8,28.5,29.44,WNW,293,8.1,8.1,69,0.01,,,0.00,WUHU216HW,2013-02-06 13:00:00,
2013-02-06 08:05:00,37.8,28.5,29.44,WNW,293,8.1,8.1,69,0.01,,,0.00,WUHU216HW,2013-02-06 13:05:00,
2013-02-06 08:30:00,37.4,28.3,29.45,NW,315,6.5,6.5,69,0.01,,,0.01,WUHU216HW,2013-02-06 13:30:00,
2013-02-06 08:35:00,37.4,28.3,29.45,NW,315,6.5,6.5,69,0.01,,,0.01,WUHU216HW,2013-02-06 13:35:00,
2013-02-06 09:00:00,37.3,28.1,29.46,SW,225,6.9,6.9,69,0.00,,,0.01,WUHU216HW,2013-02-06 14:00:00,
2013-02-06 09:05:00,37.3,28.1,29.46,SW,225,6.9,6.9,69,0.00,,,0.01,WUHU216HW,2013-02-06 14:05:00,
2013-02-06 09:30:00,37.3,27.3,29.49,NW,315,6.7,6.7,67,0.00,,,0.01,WUHU216HW,2013-02-06 14:30:00,
2013-02-06 09:35:00,37.3,27.3,29.49,NW,315,6.7,6.7,67,0.00,,,0.01,WUHU216HW,2013-02-06 14:35:00,
2013-02-06 10:00:00,37.4,28.3,29.50,NNW,338,4.9,4.9,69,0.00,,,0.01,WUHU216HW,2013-02-06 15:00:00,
2013-02-06 10:05:00,37.4,28.3,29.50,NNW,338,4.9,4.9,69,0.00,,,0.01,WUHU216HW,2013-02-06 15:05:00,
2013-02-06 10:30:00,38.7,28.3,29.51,West,270,9.8,9.8,66,0.00,,,0.01,WUHU216HW,2013-02-06 15:30:00,
2013-02-06 10:35:00,38.7,28.3,29.51,West,270,9.8,9.8,66,0.00,,,0.01,WUHU216HW,2013-02-06 15:35:00,
2013-02-06 11:00:00,40.0,26.3,29.51,WNW,293,10.3,10.3,58,0.00,,,0.01,WUHU216HW,2013-02-06 16:00:00,
2013-02-06 11:05:00,40.0,26.3,29.51,WNW,293,10.3,10.3,58,0.00,,,0.01,WUHU216HW,2013-02-06 16:05:00,
2013-02-06 11:30:00,40.5,26.4,29.52,NW,315,7.4,7.4,57,0.00,,,0.01,WUHU216HW,2013-02-06 16:30:00,
2013-02-06 11:35:00,40.5,26.4,29.52,NW,315,7.4,7.4,57,0.00,,,0.01,WUHU216HW,2013-02-06 16:35:00,
2013-02-06 12:00:00,41.2,25.8,29.52,NW,315,6.3,6.3,54,0.00,,,0.01,WUHU216HW,2013-02-06 17:00:00,
2013-02-06 12:05:00,41.2,25.8,29.52,NW,315,6.3,6.3,54,0.00,,,0.01,WUHU216HW,2013-02-06 17:05:00,
2013-02-06 12:30:00,41.8,27.2,29.53,West,270,8.5,8.5,56,0.00,,,0.01,WUHU216HW,2013-02-06 17:30:00,
2013-02-06 12:35:00,41.8,27.2,29.53,West,270,8.5,8.5,56,0.00,,,0.01,WUHU216HW,2013-02-06 17:35:00,
2013-02-06 13:00:00,41.4,26.8,29.53,West,270,3.8,3.8,56,0.00,,,0.01,WUHU216HW,2013-02-06 18:00:00,
2013-02-06 13:05:00,41.4,26.8,29.53,West,270,3.8,3.8,56,0.00,,,0.01,WUHU216HW,2013-02-06 18:05:00,
2013-02-06 13:30:00,42.1,25.8,29.53,WSW,248,9.6,9.6,52,0.00,,,0.01,WUHU216HW,2013-02-06 18:30:00,
2013-02-06 13:35:00,42.1,25.8,29.53,WSW,248,9.6,9.6,52,0.00,,,0.01,WUHU216HW,2013-02-06 18:35:00,
2013-02-06 14:00:00,41.9,26.5,29.52,NW,315,9.4,9.4,54,0.00,,,0.01,WUHU216HW,2013-02-06 19:00:00,
2013-02-06 14:05:00,41.9,26.5,29.52,NW,315,9.4,9.4,54,0.00,,,0.01,WUHU216HW,2013-02-06 19:05:00,
2013-02-06 14:30:00,42.5,26.9,29.52,West,270,8.5,8.5,54,0.00,,,0.01,WUHU216HW,2013-02-06 19:30:00,
2013-02-06 14:35:00,42.5,26.9,29.52,West,270,8.5,8.5,54,0.00,,,0.01,WUHU216HW,2013-02-06 19:35:00,
2013-02-06 15:00:00,43.0,27.0,29.53,WNW,293,5.4,5.4,53,0.00,,,0.01,WUHU216HW,2013-02-06 20:00:00,
2013-02-06 15:05:00,43.0,27.0,29.53,WNW,293,5.4,5.4,53,0.00,,,0.01,WUHU216HW,2013-02-06 20:05:00,
2013-02-06 15:30:00,42.7,26.6,29.53,NNW,338,8.1,8.1,53,0.00,,,0.01,WUHU216HW,2013-02-06 20:30:00,
2013-02-06 15:35:00,42.7,26.6,29.53,NNW,338,8.1,8.1,53,0.00,,,0.01,WUHU216HW,2013-02-06 20:35:00,
2013-02-06 16:00:00,42.8,26.5,29.54,WNW,293,8.1,8.1,52,0.00,,,0.01,WUHU216HW,2013-02-06 21:00:00,
2013-02-06 16:05:00,42.8,26.5,29.54,WNW,293,8.1,8.1,52,0.00,,,0.01,WUHU216HW,2013-02-06 21:05:00,
2013-02-06 16:30:00,42.1,26.7,29.56,WNW,293,5.6,5.6,54,0.00,,,0.01,WUHU216HW,2013-02-06 21:30:00,
2013-02-06 16:35:00,42.1,26.7,29.56,WNW,293,5.6,5.6,54,0.00,,,0.01,WUHU216HW,2013-02-06 21:35:00,
2013-02-06 17:00:00,41.0,26.9,29.57,NW,315,6.7,6.7,57,0.00,,,0.01,WUHU216HW,2013-02-06 22:00:00,
2013-02-06 17:05:00,41.0,26.9,29.57,NW,315,6.7,6.7,57,0.00,,,0.01,WUHU216HW,2013-02-06 22:05:00,
2013-02-06 17:30:00,40.0,27.2,29.59,North,0,0.7,0.7,60,0.00,,,0.01,WUHU216HW,2013-02-06 22:30:00,
2013-02-06 17:35:00,40.0,27.2,29.59,North,0,0.7,0.7,60,0.00,,,0.01,WUHU216HW,2013-02-06 22:35:00,
2013-02-06 18:00:00,38.0,26.1,29.59,NNE,23,3.4,3.4,62,0.00,,,0.01,WUHU216HW,2013-02-06 23:00:00,
2013-02-06 18:05:00,38.0,26.1,29.59,NNE,23,3.4,3.4,62,0.00,,,0.01,WUHU216HW,2013-02-06 23:05:00,
2013-02-06 18:30:00,36.0,26.1,29.59,NNE,23,2.5,2.5,67,0.00,,,0.01,WUHU216HW,2013-02-06 23:30:00,
2013-02-06 18:35:00,36.0,26.1,29.59,NNE,23,2.5,2.5,67,0.00,,,0.01,WUHU216HW,2013-02-06 23:35:00,
2013-02-06 19:00:00,35.3,25.7,29.60,NNW,338,3.4,3.4,68,0.00,,,0.01,WUHU216HW,2013-02-07 00:00:00,
2013-02-06 19:05:00,35.3,25.7,29.60,NNW,338,3.4,3.4,68,0.00,,,0.01,WUHU216HW,2013-02-07 00:05:00,
2013-02-06 19:30:00,34.7,25.6,29.62,NNE,23,1.8,1.8,69,0.00,,,0.01,WUHU216HW,2013-02-07 00:30:00,
2013-02-06 19:35:00,34.7,25.6,29.62,NNE,23,1.8,1.8,69,0.00,,,0.01,WUHU216HW,2013-02-07 00:35:00,
2013-02-06 20:00:00,33.5,24.7,29.62,NE,45,3.4,3.4,70,0.00,,,0.01,WUHU216HW,2013-02-07 01:00:00,
2013-02-06 20:05:00,33.5,24.7,29.62,NE,45,3.4,3.4,70,0.00,,,0.01,WUHU216HW,2013-02-07 01:05:00,
2013-02-06 20:30:00,33.5,25.0,29.62,ENE,68,2.0,2.0,71,0.00,,,0.01,WUHU216HW,2013-02-07 01:30:00,
2013-02-06 20:35:00,33.5,25.0,29.62,ENE,68,2.0,2.0,71,0.00,,,0.01,WUHU216HW,2013-02-07 01:35:00,
2013-02-06 21:00:00,31.3,23.1,29.63,ENE,68,2.0,2.0,71,0.00,,,0.01,WUHU216HW,2013-02-07 02:00:00,
2013-02-06 21:05:00,31.3,23.1,29.63,ENE,68,2.0,2.0,71,0.00,,,0.01,WUHU216HW,2013-02-07 02:05:00,
2013-02-06 21:30:00,29.7,22.1,29.64,ESE,113,1.8,1.8,73,0.00,,,0.01,WUHU216HW,2013-02-07 02:30:00,
2013-02-06 21:35:00,29.7,22.1,29.64,ESE,113,1.8,1.8,73,0.00,,,0.01,WUHU216HW,2013-02-07 02:35:00,
2013-02-06 22:00:00,29.3,21.8,29.66,SW,225,0.0,0.0,73,0.00,,,0.01,WUHU216HW,2013-02-07 03:00:00,
2013-02-06 22:05:00,29.3,21.8,29.66,SW,225,0.0,0.0,73,0.00,,,0.01,WUHU216HW,2013-02-07 03:05:00,
2013-02-06 22:30:00,28.6,21.7,29.64,East,90,0.4,0.4,75,0.00,,,0.01,WUHU216HW,2013-02-07 03:30:00,
2013-02-06 22:35:00,28.6,21.7,29.64,East,90,0.4,0.4,75,0.00,,,0.01,WUHU216HW,2013-02-07 03:35:00,
2013-02-06 23:00:00,27.9,21.0,29.64,East,90,0.4,0.4,75,0.00,,,0.01,WUHU216HW,2013-02-07 04:00:00,
2013-02-06 23:05:00,27.9,21.0,29.64,East,90,0.4,0.4,75,0.00,,,0.01,WUHU216HW,2013-02-07 04:05:00,
2013-02-06 23:30:00,26.8,20.2,29.63,SE,135,2.0,2.0,76,0.00,,,0.01,WUHU216HW,2013-02-07 04:30:00,
2013-02-06 23:35:00,26.8,20.2,29.63,SE,135,2.0,2.0,76,0.00,,,0.01,WUHU216HW,2013-02-07 04:35:00,